Location: Karwodrza
(49.9217°N, 21.0454°E)
Time: 15:29:52
(UTC+01:00)

ISS - Pass Details

Date: 26 January 2019
Orbit: 403 x 411 km, 51.6° (Epoch: 16 February)

Event Time Altitude Azimuth Distance (km) Brightness Sun altitude
Rises 17:38:11 0° 228° (SW) 2,325 1.2 -12.6°
Reaches altitude 10° 17:40:20 10° 221° (SW) 1,469 -0.1 -12.9°
Maximum altitude 17:43:26 39° 150° (SSE) 626 -3.0 -13.4°
Enters shadow 17:44:52 25° 98° (E) 877 -2.7 -13.6°
